Pine Ridge, SD

4:50 PM MST on February 17, 2018 (GMT -0700)
Pine Ridge

Weather History for KIEN - February, 2014

Change the Weather History Date:

Monday, February 10, 2014

  Actual Average Record
Temperature  
Mean Temperature 8 °F 25 °F  
Max Temperature 22 °F 39 °F 63 °F (2016)
Min Temperature -6 °F 12 °F -25 °F (2018)
Degree Days  
Heating Degree Days 57 40  
Month to date heating degree days 615 403  
Since 1 July heating degree days 4800 4680  
Cooling Degree Days 0 0  
Month to date cooling degree days 0 0  
Year to date cooling degree days 0 0  
Moisture  
Dew Point 5 °F    
Average Humidity 81    
Maximum Humidity 95    
Minimum Humidity 67    
Precipitation  
Precipitation T in 0.02 in 0.02 in (2015)
Month to date precipitation 0.09 0.18  
Year to date precipitation 0.18 0.50  
Sea Level Pressure  
Sea Level Pressure 30.31 in    
Wind  
Wind Speed 5 mph (SSW)    
Max Wind Speed 17 mph    
Max Gust Speed 21 mph    
Visibility 9 miles    
Events      
T = Trace of Precipitation, MM = Missing Value Source: NWS Daily Summary

Daily Weather History Graph

Daily Weather History Graph

Search for Another Location

Airport or City:

Trip Planner

Search our weather history database for the weather conditions in past years. The results will help you decide how hot, cold, wet, or windy it might be!

Date:

Astronomy

Feb. 10, 2014 Rise Set
Actual Time 6:54 AM MST 5:14 PM MST
Civil Twilight 6:24 AM MST 5:44 PM MST
Nautical Twilight 5:51 AM MST 6:17 PM MST
Astronomical Twilight 5:18 AM MST 6:50 PM MST
Moon 1:43 PM MST (2/10) 3:51 AM MST (2/10)
Length of Visible Light 11h 19m
Length of Day
10h 20m
Waxing Gibbous, 85% of the Moon is Illuminated
Feb 10
Waxing Gibbous
Feb 14
Full
Feb 22
Last Quarter
Mar 1
New
Mar 8
First Quarter

Hourly Weather History & Observations

Time (MST) Temp. Windchill Dew Point Humidity Pressure Visibility Wind Dir Wind Speed Gust Speed Precip Events Conditions
12:52 AM -2.0 °F - -7.1 °F 79% 30.40 in 10.0 mi Calm Calm - N/A   Overcast
1:52 AM 3.0 °F - -0.9 °F 84% 30.39 in 10.0 mi Calm Calm - N/A   Overcast
2:52 AM 8.1 °F -0.5 °F 3.0 °F 80% 30.35 in 10.0 mi SSW 4.6 mph - N/A   Overcast
3:52 AM 10.0 °F -3.7 °F 3.9 °F 76% 30.34 in 10.0 mi South 10.4 mph - N/A   Overcast
4:35 AM 8.6 °F -4.7 °F 3.2 °F 79% 30.13 in 10.0 mi South 9.2 mph - N/A   Scattered Clouds
4:52 AM 9.0 °F -5.1 °F 3.9 °F 80% 30.33 in 10.0 mi South 10.4 mph - N/A   Clear
5:52 AM 10.0 °F -4.5 °F 5.0 °F 80% 30.33 in 10.0 mi South 11.5 mph - N/A   Clear
6:52 AM 10.0 °F -2.9 °F 3.9 °F 76% 30.32 in 9.0 mi South 9.2 mph - N/A   Mostly Cloudy
7:52 AM 10.9 °F -0.8 °F 6.1 °F 81% 30.32 in 10.0 mi South 8.1 mph - N/A   Mostly Cloudy
8:52 AM 12.0 °F -1.3 °F 7.0 °F 80% 30.33 in 10.0 mi SSW 10.4 mph - N/A   Mostly Cloudy
9:52 AM 15.1 °F 1.1 °F 8.1 °F 74% 30.33 in 10.0 mi SSW 12.7 mph - N/A   Partly Cloudy
10:52 AM 16.0 °F 2.9 °F 9.0 °F 74% 30.33 in 10.0 mi SSW 11.5 mph - N/A   Clear
11:52 AM 18.0 °F 6.1 °F 10.0 °F 71% 30.32 in 10.0 mi South 10.4 mph - N/A   Mostly Cloudy
12:52 PM 19.0 °F 12.3 °F 10.0 °F 68% 30.30 in 10.0 mi SSW 4.6 mph - N/A   Partly Cloudy
1:52 PM 19.9 °F - 10.0 °F 65% 30.28 in 10.0 mi Calm Calm - N/A   Clear
2:52 PM 19.9 °F - 10.9 °F 68% 30.27 in 10.0 mi Calm Calm - N/A   Mostly Cloudy
3:52 PM 19.9 °F - 10.9 °F 68% 30.27 in 9.0 mi Calm Calm - N/A   Overcast
4:52 PM 19.9 °F - 12.0 °F 71% 30.29 in 8.0 mi Calm Calm - N/A   Overcast
5:52 PM 14.0 °F - 8.1 °F 77% 30.31 in 8.0 mi Calm Calm - 0.00 in   Scattered Clouds
6:52 PM 9.0 °F - 6.1 °F 88% 30.33 in 6.0 mi Calm Calm - N/A   Mostly Cloudy
7:52 PM 5.0 °F -2.1 °F 1.0 °F 84% 30.34 in 5.0 mi NW 3.5 mph - N/A   Clear
8:52 PM 1.0 °F - -0.9 °F 91% 30.35 in 6.0 mi Calm Calm - N/A   Clear
9:52 PM -0.0 °F -7.9 °F -2.9 °F 88% 30.32 in 6.0 mi East 3.5 mph - N/A   Clear
10:52 PM -0.9 °F -8.9 °F -7.1 °F 75% 30.30 in 6.0 mi WNW 3.5 mph - N/A   Haze
11:52 PM 3.9 °F -3.4 °F -0.0 °F 84% 30.27 in 7.0 mi WNW 3.5 mph - N/A   Clear